RH
11 14 19 28 35 30 30 37 34 28 28 25 24 33 34 33 42 60 32 50 55 59 49 50 52 51 51 53 52 52 50 41 32 27 22 20 20 20 21 21 22 22 23 23 24 24 25 25 25
15 26 30 28 30 53 48 38 32 29 20 27 32 32 39 49 36 48 60 63 61 54 43 50 52 51 51 53 52 52 46 38 34 30 25 22 22 22 22 24 24 24 25 26 26 27 28 29 29
17 23 28 29 34 46 44 30 35 31 25 27 47 38 40 47 42 55 59 69 66 64 44 49 53 52 51 51 50 48 42 39 39 34 28 25 24 24 25 25 26 26 27 29 29 28 27 27 28
17 22 19 27 30 32 31 28 50 34 26 28 39 50 42 43 59 56 65 69 69 53 49 52 54 52 50 50 49 45 41 42 43 38 33 29 27 26 26 27 28 27 26 27 29 32 31 30 30
27 25 26 25 20 22 26 39 35 32 21 35 33 40 51 51 41 63 67 67 48 48 55 53 52 51 50 48 46 45 45 46 47 43 38 34 31 29 29 30 30 29 31 32 31 30 29 29 28
28 19 29 30 26 18 19 25 21 25 19 25 38 43 51 55 60 65 68 70 59 48 55 52 50 50 51 50 50 49 49 52 53 49 44 41 37 35 33 35 35 35 34 33 33 31 30 27 24
30 32 33 24 22 26 14 10 27 24 22 29 35 48 52 55 58 63 68 73 67 62 58 49 47 52 54 54 54 55 54 56 57 56 51 48 46 42 39 39 40 39 40 42 41 39 37 35 31
22 25 26 21 20 23 12 10 9 18 18 19 26 54 47 53 58 63 68 63 72 75 72 50 49 52 56 58 59 59 60 61 63 61 59 56 53 49 47 45 43 42 46 46 47 47 48 49 50
18 26 27 22 16 16 10 10 9 10 10 20 22 30 36 52 57 67 74 76 81 82 75 60 49 51 56 59 62 63 63 65 67 67 64 61 58 57 54 52 53 54 50 48 47 47 49 52 55
18 25 22 16 12 13 10 10 10 9 9 22 28 34 39 46 57 68 73 79 84 77 66 58 53 54 58 62 64 65 66 68 68 67 66 66 62 64 64 63 63 58 52 45 47 51 62 66 62
16 20 15 12 10 11 12 10 9 10 12 15 44 43 43 45 59 61 62 68 55 66 76 56 54 58 59 62 66 69 68 68 70 70 70 70 66 68 78 81 79 70 60 53 54 70 76 72 71
20 13 12 11 10 11 13 12 12 10 9 12 26 35 39 45 49 53 56 57 57 46 35 51 57 62 63 61 69 70 70 69 68 66 71 75 73 71 82 87 78 78 76 74 77 77 76 77 78
20 17 13 12 11 10 11 12 14 12 11 11 15 25 34 36 37 40 43 46 46 51 48 41 41 70 82 84 86 82 78 74 72 74 72 80 81 74 82 84 78 80 76 76 79 82 85 87 91
18 18 17 14 14 14 12 12 11 10 10 11 11 14 22 25 29 32 34 40 47 50 55 48 46 47 69 75 87 91 86 81 79 77 77 82 80 81 84 84 80 86 81 84 83 87 88 87 82
20 25 22 18 14 17 13 17 15 10 10 10 10 10 11 13 16 23 24 29 36 47 52 50 48 52 52 62 92 98 92 88 84 76 81 84 83 86 87 86 86 82 86 97 88 89 87 91 91
25 25 32 22 18 15 15 19 16 11 11 11 10 10 10 12 12 13 18 21 28 38 48 48 50 48 48 49 66 99 93 91 90 85 86 83 82 80 86 90 89 87 89 89 90 91 77 48 38
30 37 31 25 18 16 16 18 15 11 12 11 11 10 10 10 12 12 16 18 26 31 41 44 46 45 48 48 51 67 99 89 85 89 87 84 87 84 88 84 89 84 88 87 91 71 58 71 64
36 33 29 29 20 16 17 18 16 11 12 12 11 11 11 11 11 12 15 17 23 30 36 38 39 43 48 51 63 59 81 99 91 89 87 88 86 85 88 89 81 88 88 90 70 74 79 73 42
27 28 29 24 20 19 19 18 18 14 13 14 13 12 11 11 12 12 13 15 22 29 35 39 41 43 51 56 47 52 58 79 100 100 99 88 88 87 91 79 84 87 90 91 70 76 64 55 57
29 31 32 27 21 20 22 22 19 17 16 13 12 12 11 12 12 13 13 15 18 26 30 41 42 43 46 52 47 36 51 91 99 100 100 98 94 99 97 73 84 85 100 93 81 82 72 34 18
28 32 31 31 24 22 24 25 22 17 14 12 11 11 11 11 12 12 12 12 17 23 30 38 42 44 47 53 63 58 62 95 99 99 100 100 99 96 79 81 84 90 92 85 66 61 24 21 21
33 26 26 27 30 37 22 35 24 19 16 15 12 11 11 11 12 14 13 14 19 24 39 42 45 47 55 59 64 65 63 62 55 82 100 100 99 92 90 84 92 95 83 76 64 26 22 22 20
29 24 24 27 34 33 27 35 24 19 19 16 15 11 10 12 14 16 16 18 21 28 44 58 63 64 61 64 69 69 69 69 70 73 91 100 99 94 90 88 92 86 86 76 27 21 22 22 20
21 24 26 28 33 45 28 33 28 24 19 21 25 20 17 18 19 19 19 20 22 22 20 24 38 57 59 64 72 79 83 81 81 83 84 97 90 98 88 94 84 90 86 35 25 19 23 23 22
23 31 50 51 50 52 28 29 25 21 18 21 26 21 21 21 22 23 24 25 25 24 23 25 34 46 57 63 69 75 86 93 90 83 85 79 94 95 94 91 88 90 54 29 20 24 28 27 26
31 35 54 51 54 46 26 34 28 21 16 14 17 18 19 20 21 23 25 27 30 34 34 38 45 51 54 62 68 77 95 99 100 91 94 80 91 96 100 99 100 84 36 22 24 32 33 32 34
26 38 28 39 40 47 37 29 23 21 23 20 16 20 20 20 20 22 27 30 34 36 31 28 23 25 28 32 50 75 93 97 99 99 98 96 99 100 99 100 92 64 27 24 34 36 38 42 49
22 20 31 40 49 57 42 34 34 31 26 26 28 21 19 19 20 23 26 30 31 33 35 31 30 30 37 58 66 77 87 92 98 99 100 98 96 100 99 82 60 49 39 34 38 41 43 50 48
24 27 27 32 38 50 47 49 24 25 22 24 24 19 20 19 18 22 27 30 31 36 37 41 46 43 37 40 45 58 81 88 86 98 100 100 100 91 70 61 57 54 47 39 47 51 63 58 56
23 27 32 42 44 47 43 47 27 24 27 27 26 22 22 20 21 23 24 25 30 35 42 38 42 48 50 58 55 60 79 91 94 97 100 100 80 65 57 58 61 60 42 48 47 66 67 66 41
Wind_Speed
1 0 5 5 3 4 4 4 3 9 5 16 21 5 5 12 7 4 15 22 26 21 25 26 24 23 22 21 19 17 15 12 12 11 10 10 9 9 9 8 8 7 7 7 6 6 7 7 8
3 3 7 6 3 2 5 6 7 11 12 29 20 18 12 5 6 17 18 18 21 21 27 27 25 23 23 21 19 17 15 13 11 10 9 9 8 8 8 7 7 6 5 5 5 5 5 6 6
4 6 3 4 3 5 4 3 5 21 18 14 9 19 4 9 13 25 18 21 16 22 29 27 25 24 23 21 19 17 15 13 11 10 9 8 8 7 6 6 6 5 4 3 3 3 4 3 3
3 3 6 1 8 8 6 5 18 13 12 11 16 5 2 8 17 24 22 18 14 28 27 26 24 23 21 20 19 17 15 13 11 10 8 7 7 6 5 5 4 4 2 2 2 2 2 1 2
3 5 2 3 7 8 1 28 37 8 2 12 18 7 7 11 17 28 22 17 17 26 25 24 23 21 20 19 18 17 15 13 11 10 8 7 7 6 5 5 4 2 2 1 1 1 1 1 1
4 4 3 5 8 9 7 17 19 10 10 6 16 17 8 17 25 25 18 14 9 20 22 23 22 21 20 19 18 17 15 13 12 10 9 8 7 6 5 5 4 3 2 0 1 1 2 3 3
7 1 5 3 12 7 7 4 13 2 5 16 29 5 19 18 19 22 19 16 13 15 17 23 23 23 21 19 18 16 15 14 12 11 9 8 8 6 6 5 4 3 2 1 2 2 3 3 4
18 1 8 1 13 8 5 8 7 16 4 12 20 7 12 26 23 22 20 16 15 15 14 22 24 23 22 21 18 17 17 15 14 12 11 10 8 8 7 6 5 4 3 3 3 2 3 4 5
18 1 7 10 13 7 8 3 6 4 1 13 12 21 29 30 23 23 21 19 19 17 17 20 25 24 23 22 21 20 18 17 15 14 12 11 9 9 8 7 6 4 4 4 3 3 3 3 4
3 2 8 10 7 3 6 2 4 4 6 9 22 29 34 29 28 29 28 25 24 21 19 21 25 26 25 24 23 21 21 19 18 16 14 12 11 10 9 9 7 4 5 6 5 2 1 3 2
17 9 9 19 18 7 5 2 1 2 6 8 34 35 33 29 32 28 26 25 23 19 16 18 24 26 25 26 25 24 22 21 20 17 16 14 14 14 10 7 7 5 7 5 4 2 1 1 5
6 18 20 18 20 6 7 15 14 4 13 9 24 30 29 31 30 28 24 23 22 19 15 14 19 22 22 26 25 25 25 23 22 20 18 18 18 14 14 10 7 4 2 4 3 2 3 4 6
8 8 16 16 24 13 7 10 12 20 17 12 11 26 29 26 24 26 29 29 27 26 21 17 17 19 20 20 20 20 21 22 22 21 20 19 19 17 16 13 10 10 10 7 5 5 5 7 8
20 23 18 20 17 17 7 9 13 26 20 21 21 15 22 22 23 25 26 33 36 32 27 21 17 17 22 23 23 23 20 20 19 20 19 19 18 19 18 15 14 15 12 10 8 8 10 14 15
24 11 12 12 16 12 22 8 9 25 24 26 28 25 20 24 22 25 24 27 33 36 30 24 19 16 20 26 27 28 26 22 21 21 19 21 19 19 21 19 19 19 17 16 14 16 17 18 18
7 7 7 10 13 26 14 16 12 28 27 33 35 30 32 25 29 27 27 23 27 32 34 26 23 19 20 25 29 29 29 28 26 24 23 24 21 21 25 25 25 23 24 21 18 19 17 12 12
4 7 10 18 17 15 13 11 9 24 23 22 33 27 22 29 24 28 29 24 32 30 33 27 27 24 25 24 27 31 30 29 28 27 25 25 25 24 28 27 26 24 23 22 20 16 11 13 15
6 7 9 11 12 9 8 7 8 22 21 16 18 20 20 20 20 28 24 25 32 34 33 32 31 31 30 26 26 30 32 33 31 32 32 30 30 29 30 30 26 22 21 19 16 13 14 15 16
11 11 13 10 13 7 7 6 10 14 22 13 23 23 23 22 19 24 26 26 30 36 38 38 36 35 33 30 30 33 34 36 37 33 35 34 33 31 32 30 27 23 22 18 18 17 16 16 19
8 9 7 9 13 8 9 8 7 7 12 26 26 29 27 22 20 24 25 28 32 37 38 42 40 38 36 33 27 32 34 35 36 35 34 34 38 33 31 30 27 23 26 24 23 22 20 18 15
8 6 5 9 13 12 7 10 8 12 19 30 33 25 33 29 28 30 30 32 35 33 37 41 42 40 38 33 28 29 32 33 34 36 36 37 36 36 33 29 26 27 29 25 25 23 18 11 11
8 8 6 8 5 9 2 14 11 13 14 11 27 32 26 34 32 18 21 31 31 24 29 38 40 38 36 34 33 32 32 37 42 40 38 36 33 34 32 30 31 29 30 29 27 20 14 13 12
9 6 4 4 7 6 11 3 15 8 13 17 12 31 28 16 27 22 20 18 19 18 17 19 24 31 34 36 36 35 34 33 32 35 34 32 35 34 35 35 35 34 33 32 25 17 14 15 16
7 4 6 5 1 3 17 6 15 5 7 3 9 17 21 22 18 17 17 16 15 17 22 23 21 21 24 28 33 37 36 35 35 34 29 35 35 36 38 35 36 29 30 28 19 17 16 16 18
3 3 3 3 0 6 7 5 13 9 2 7 7 16 15 13 12 11 11 12 15 19 23 25 25 24 24 25 28 32 35 36 36 33 30 32 36 37 36 38 35 30 30 24 20 15 16 19 21
7 8 5 3 2 5 3 5 7 5 5 7 10 16 15 15 15 14 15 15 16 18 23 23 25 26 29 31 31 31 33 35 34 35 32 34 35 36 37 38 34 29 26 22 17 14 16 20 22
6 5 13 6 5 2 5 9 8 11 12 5 11 20 20 20 19 18 16 17 16 18 17 15 15 18 21 26 31 32 32 32 34 35 33 35 32 34 36 34 27 27 23 20 15 14 17 21 21
7 3 2 3 3 6 5 6 5 9 6 5 8 7 8 14 14 19 21 18 16 18 17 14 13 13 18 28 31 31 32 32 32 32 37 33 34 33 31 26 25 24 23 18 14 14 16 19 25
3 3 3 3 4 5 8 5 7 9 3 5 6 9 8 14 15 15 19 15 15 16 19 20 17 15 18 20 19 23 23 23 29 33 30 34 34 28 25 27 28 25 21 17 15 13 22 22 29
8 9 8 5 7 5 8 9 8 9 6 7 10 15 13 11 11 18 19 19 21 23 22 24 23 23 23 19 19 20 18 25 28 31 31 30 26 28 33 31 29 26 22 16 12 21 29 34 28
Wind_Direction
316 277 299 287 31 81 276 297 248 312 66 111 125 141 165 126 167 207 185 202 209 192 180 172 168 160 157 152 148 145 139 130 122 116 115 117 117 116 112 108 104 102 100 98 95 96 99 99 99
194 256 311 286 96 9 291 225 324 270 69 115 103 98 76 23 126 132 157 176 177 173 179 170 167 160 156 153 151 147 145 139 131 125 124 123 122 117 114 113 110 103 98 98 100 98 92 90 95
195 257 281 162 183 214 198 210 263 306 42 125 73 36 73 125 116 149 172 169 183 189 175 168 164 160 156 155 154 154 152 145 141 137 134 132 128 126 124 119 113 107 109 112 101 102 91 86 98
173 271 260 43 258 236 211 109 28 296 70 52 125 123 78 173 156 158 169 175 185 174 171 165 163 160 159 160 161 159 156 152 150 145 143 140 141 133 127 121 113 107 124 124 129 88 67 43 40
258 258 228 268 270 286 130 138 176 103 237 98 147 135 87 115 145 150 171 189 175 169 169 167 165 164 166 167 167 164 162 162 160 156 154 154 144 137 147 137 140 157 165 145 73 31 10 338 339
265 261 16 311 261 266 263 167 116 167 217 94 128 129 111 133 136 149 172 185 181 150 166 172 170 172 174 174 172 169 168 171 170 169 167 164 154 160 162 166 174 188 191 84 7 322 334 332 318
218 104 237 248 289 320 221 113 148 142 132 160 149 111 142 149 151 156 172 184 181 165 164 179 178 179 180 179 178 176 179 182 182 182 179 175 171 177 183 189 201 215 238 291 297 317 325 317 317
251 164 297 254 269 241 193 150 94 139 137 135 161 152 165 167 167 171 177 190 184 180 182 184 186 187 186 186 184 186 189 191 193 193 191 189 187 195 198 208 224 238 267 269 268 293 303 313 324
271 348 277 270 287 196 146 129 142 126 289 101 123 149 166 170 170 169 171 184 191 193 197 192 192 194 194 193 192 194 197 200 200 203 203 203 202 208 214 226 240 262 281 271 271 263 282 312 319
212 211 252 251 335 350 122 117 134 148 235 132 124 151 165 173 171 173 179 186 196 199 194 199 197 198 198 199 201 202 205 207 209 212 213 212 213 218 222 229 238 247 267 255 252 250 9 332 330
262 234 260 285 313 15 2 261 286 126 303 190 147 156 165 169 175 185 189 193 201 207 211 201 198 202 205 205 206 208 211 213 215 217 219 218 221 221 218 222 253 267 258 242 224 193 51 344 329
286 261 269 292 310 353 326 323 323 273 254 104 167 166 167 172 179 192 200 207 208 215 221 205 205 200 207 214 212 212 215 217 221 222 221 219 221 223 226 215 239 240 261 211 192 240 233 248 311
308 284 269 285 290 294 268 277 284 300 301 297 151 173 178 182 192 199 209 215 218 211 214 214 218 208 208 210 213 211 215 222 224 226 223 216 218 221 224 217 230 234 237 232 226 247 279 282 277
301 304 306 307 303 309 277 260 264 275 284 284 279 209 193 197 201 208 212 217 213 213 205 214 225 223 222 213 211 218 222 220 216 218 224 218 220 224 218 225 229 239 241 229 238 238 248 259 263
325 324 316 303 285 282 285 298 246 258 262 261 261 259 231 213 213 216 220 217 219 211 206 212 225 229 234 225 211 214 222 224 224 229 228 223 224 223 223 213 224 233 231 221 228 240 252 256 264
315 306 284 264 255 258 234 254 249 257 254 247 248 245 241 230 229 223 219 218 214 209 205 212 218 236 238 226 215 207 213 220 226 222 228 223 217 222 223 218 222 230 235 234 235 242 256 266 290
251 259 269 284 247 242 202 232 237 260 274 274 227 240 235 244 236 219 216 214 212 213 204 210 221 235 240 229 223 213 213 217 217 224 227 229 218 226 225 228 230 235 226 229 227 238 252 270 288
265 279 277 261 288 277 176 214 238 264 272 244 224 234 244 245 237 224 215 217 215 211 215 221 228 232 234 232 228 218 214 215 219 223 227 227 229 223 231 233 234 223 216 220 225 235 252 270 292
247 257 270 293 310 337 282 232 235 253 288 253 249 224 231 225 230 214 224 219 212 210 215 218 223 227 226 226 227 220 217 216 217 224 227 233 232 227 224 232 221 216 218 219 223 229 247 268 282
300 300 303 308 310 320 300 257 241 252 253 271 272 220 219 223 208 209 218 216 209 208 217 217 222 227 230 231 233 234 225 223 222 224 222 224 231 230 233 228 218 216 210 220 227 233 241 255 274
284 264 286 277 294 303 337 298 297 272 258 255 256 251 214 215 211 215 217 217 211 210 214 218 223 226 230 232 228 230 227 230 227 226 228 229 228 229 227 223 214 215 219 230 227 240 242 269 282
275 259 278 281 302 270 79 293 281 285 288 252 251 237 226 215 220 200 215 213 199 204 210 213 219 226 228 232 233 237 248 242 241 236 234 234 230 223 222 220 215 216 220 231 233 239 253 270 277
256 264 291 326 323 356 298 300 283 303 306 289 218 222 225 193 168 152 160 178 192 200 185 201 217 227 234 236 237 241 246 250 250 246 247 237 235 223 221 223 222 224 223 231 236 241 257 271 275
247 308 322 283 129 300 266 175 285 252 244 7 44 118 128 133 141 156 167 175 185 211 229 233 229 220 225 239 247 244 245 242 240 241 252 244 239 228 225 228 232 226 226 231 235 237 256 268 275
123 45 318 334 230 224 284 274 239 284 329 135 128 120 128 140 152 166 189 205 221 233 240 244 245 245 245 241 244 250 246 244 246 251 244 251 239 234 229 231 231 229 227 226 228 245 267 275 275
183 164 173 240 257 275 333 264 277 274 310 164 157 163 163 169 175 192 208 223 235 242 241 245 249 249 244 245 248 248 249 251 250 249 245 250 240 234 226 229 226 228 223 222 229 256 276 279 278
231 185 217 228 257 273 243 283 297 287 355 229 163 174 178 189 201 211 202 205 223 244 248 246 238 237 241 244 245 246 249 248 244 244 244 248 238 235 233 231 236 227 223 223 242 271 290 283 286
193 183 19 294 228 252 233 235 244 342 340 45 353 344 206 200 208 214 206 214 230 238 240 247 244 253 247 245 247 249 250 246 240 240 244 241 246 230 228 235 225 221 223 228 258 278 298 295 304
213 235 229 186 185 232 271 249 221 274 259 305 296 298 336 257 238 220 205 210 230 233 244 259 258 269 282 277 268 257 250 242 235 236 240 239 225 231 227 217 219 226 228 238 254 288 316 307 305
201 207 184 197 256 240 247 250 263 260 271 265 275 278 280 262 250 220 214 231 220 229 231 252 264 266 267 276 281 279 261 240 238 239 240 231 218 215 209 210 215 222 223 240 271 310 318 307 284